Location: B�rgermoos
(47.6500°N, 9.0667°E)
Time: 07:14:07
(UTC+00:00)

CSL-04 Debris - Pass Details

Date: 18 September 2020
Orbit: 827 x 847 km, 98.9° (Epoch: 24 October)

Event Time Altitude Azimuth Distance (km) Brightness Sun altitude
Rises 18:15:57 0° 166° (SSE) 3,359 7.1 -8.7°
Reaches altitude 10° 18:18:18 10° 167° (SSE) 2,428 6.3 -9.0°
Maximum altitude 18:23:41 81° 255° (WSW) 844 4.3 -9.9°
Drops below altitude 10° 18:29:06 10° 343° (NNW) 2,443 7.0 -10.8°
Sets 18:31:28 0° 345° (NNW) 3,381 7.8 -11.2°
